Flag for United Kingdom Weather past 2 weeks in Whitstable, England, United Kingdom

Now
54 °F

Cool.


Feels Like: 49 °F
Forecast: N/A
Wind: 25 mph from Southwest

Location: Manston

Current Time: Dec 18, 2014 at 8:25:57 PM

Latest Report: Dec 18, 2014 at 7:00 PM


Visibility: 18 mi

Pressure: 29.87 "Hg

Humidity: 87%

Dew point: 51 °F

Location of WhitstableLocation

Historic Weather in Whitstable — Graph

°F

Whitstable temperature yesterday

Maximum temperature yesterday: 55 °F (at 1:00 PM)
Minimum temperature yesterday: 41 °F (at 12:00 AM)
Average temperature yesterday: 50 °F

Past Weeks' High & Low Weather Summary

 TemperatureHumidityPressure
High57 °F (Dec 18, 12:00 PM)98% (Dec 17, 6:00 AM)30.41 "Hg (Dec 17, 6:00 AM)
Low31 °F (Dec 14, 3:00 AM)61% (Dec 10, 1:00 PM)29.29 "Hg (Dec 12, 6:00 AM)
Average42 °F86%29.96 "Hg
* Reported Dec 3 7:00 PM — Dec 18 7:00 PM, Whitstable, Weather by CustomWeather, © 2014

Note: Actual official high and low records may vary slightly from our data, if they occured in-between our weather recording intervals... More about our weather records

Advertising

Whitstable weather history for previous 24 hours

 ConditionsComfort  
Time TempWeatherWind HumidityBarometerVisibility
7:00 PM
Dec 18
54 °FCool.25 mph87%29.87 "Hg18 mi
6:00 PM54 °FCool.23 mph86%29.85 "Hg22 mi
5:00 PM54 °FCool.22 mph88%29.85 "Hg19 mi
4:00 PM54 °FCool.22 mph88%29.85 "Hg16 mi
3:00 PM54 °FCool.26 mph87%29.83 "Hg22 mi
2:00 PM55 °FCool.28 mph84%29.83 "Hg19 mi
1:00 PM54 °FCool.26 mph90%29.83 "Hg12 mi
12:00 PM57 °FCool.26 mph88%29.85 "Hg17 mi
11:00 AM55 °FCool.21 mph91%29.85 "Hg25 mi
10:00 AM54 °FCool.16 mph91%29.85 "Hg25 mi
9:00 AM54 °FCool.15 mph91%29.85 "Hg31 mi
8:00 AM54 °FCool.20 mph90%29.83 "Hg31 mi
7:00 AM54 °FCool.17 mph91%29.82 "Hg31 mi
6:00 AM54 °FCool.16 mph90%29.82 "Hg31 mi
5:00 AM54 °FCool.15 mph91%29.80 "Hg31 mi
4:00 AM53 °FCool.13 mph92%29.80 "Hg31 mi
3:00 AM53 °FCool.9 mph94%29.80 "Hg31 mi
2:00 AM52 °FCool.8 mph95%29.80 "Hg28 mi
1:00 AM52 °FCool.10 mph95%29.80 "Hg17 mi
12:00 AM52 °FCool.10 mph96%29.80 "Hg11 mi
11:00 PM
Dec 17
51 °FFog.7 mph97%29.79 "Hg5 mi
10:00 PM51 °FCool.10 mph97%29.79 "Hg7 mi
9:00 PM51 °FDrizzle. Overcast.12 mph96%29.79 "Hg2 mi
8:00 PM51 °FCool.9 mph92%29.79 "Hg13 mi
Weather by CustomWeather, © 2014

See weather overviewHow to use our weather pages